Weather reports worldwide

Advertisment
Ciudad Victoria, Mexico (76491): temperature & dewpoint: 26.06.2020 00:00:00 - 02.07.2020 00:00:00 (CDT)Ciudad Victoria, Mexico (76491): wind speed: 26.06.2020 00:00:00 - 02.07.2020 00:00:00 (CDT)Ciudad Victoria, Mexico (76491): wind direction: 26.06.2020 00:00:00 - 02.07.2020 00:00:00 (CDT)Ciudad Victoria, Mexico (76491): reduced air pressure: 26.06.2020 00:00:00 - 02.07.2020 00:00:00 (CDT)Ciudad Victoria, Mexico (76491): visibility: 26.06.2020 00:00:00 - 02.07.2020 00:00:00 (CDT)
Date & Time tt [°C] td [°C] ff [km/h] ff [kn] dd ppp [hPa] vv [km]
02.07.2020 00:00:00 - - - - - - -
01.07.2020 23:00:00 - - - - - - -
01.07.2020 22:00:00 31,0 23,1 7 4 S 1009,3 6
01.07.2020 21:00:00 - - - - - - -
01.07.2020 20:00:00 - - - - - - -
01.07.2020 19:00:00 35,0 22,5 7 4 SSE 1008,1 10
01.07.2020 18:00:00 - - - - - - -
01.07.2020 17:00:00 - - - - - - -
01.07.2020 16:00:00 35,8 24,8 18 10 SE 1009,4 10
01.07.2020 15:00:00 - - - - - - -
01.07.2020 14:00:00 - - - - - - -
01.07.2020 13:00:00 34,4 24,6 18 10 E 1011,3 10
01.07.2020 12:00:00 - - - - - - -
01.07.2020 11:00:00 - - - - - - -
01.07.2020 10:00:00 28,8 - 0 0 N 1011,6 10
01.07.2020 09:00:00 - - - - - - -
01.07.2020 08:00:00 - - - - - - -
01.07.2020 07:00:00 - - - - - - -
01.07.2020 06:00:00 - - - - - - -
01.07.2020 05:00:00 - - - - - - -
01.07.2020 04:00:00 - - - - - - -
01.07.2020 03:00:00 - - - - - - -
01.07.2020 02:00:00 - - - - - - -
01.07.2020 01:00:00 - - - - - - -
01.07.2020 00:00:00 - - - - - - -
30.06.2020 23:00:00 - - - - - - -
30.06.2020 22:00:00 - - - - - - -
30.06.2020 21:00:00 - - - - - - -
30.06.2020 20:00:00 - - - - - - -
30.06.2020 19:00:00 32,8 23,4 18 10 ESE 1006,6 10
30.06.2020 18:00:00 - - - - - - -
30.06.2020 17:00:00 - - - - - - -
30.06.2020 16:00:00 36,2 24,8 14 8 ESE 1007,2 10
30.06.2020 15:00:00 - - - - - - -
30.06.2020 14:00:00 - - - - - - -
30.06.2020 13:00:00 34,8 24,4 18 10 ESE 1009,3 10
30.06.2020 12:00:00 - - - - - - -
30.06.2020 11:00:00 - - - - - - -
30.06.2020 10:00:00 31,2 23,4 18 10 ESE 1010,3 10
30.06.2020 09:00:00 - - - - - - -
30.06.2020 08:00:00 - - - - - - -
30.06.2020 07:00:00 25,6 23,4 4 2 S 1010,0 8
30.06.2020 06:00:00 - - - - - - -
30.06.2020 05:00:00 - - - - - - -
30.06.2020 04:00:00 - - - - - - -
30.06.2020 03:00:00 - - - - - - -
30.06.2020 02:00:00 - - - - - - -
30.06.2020 01:00:00 27,0 23,5 4 2 W 1010,2 6
30.06.2020 00:00:00 - - - - - - -
29.06.2020 23:00:00 - - - - - - -
29.06.2020 22:00:00 30,0 23,2 11 6 S 1008,7 6
29.06.2020 21:00:00 - - - - - - -
29.06.2020 20:00:00 - - - - - - -
29.06.2020 19:00:00 32,8 23,1 11 6 S 1007,1 10
29.06.2020 18:00:00 - - - - - - -
29.06.2020 17:00:00 - - - - - - -
29.06.2020 16:00:00 35,2 24,3 11 6 ESE 1008,1 10
29.06.2020 15:00:00 - - - - - - -
29.06.2020 14:00:00 - - - - - - -
29.06.2020 13:00:00 33,4 24,3 18 10 E 1010,1 10
29.06.2020 12:00:00 - - - - - - -
29.06.2020 11:00:00 - - - - - - -
29.06.2020 10:00:00 29,6 24,5 0 0 N 1010,0 10
29.06.2020 09:00:00 - - - - - - -
29.06.2020 08:00:00 - - - - - - -
29.06.2020 07:00:00 24,6 22,4 4 2 S 1009,2 6
29.06.2020 06:00:00 - - - - - - -
29.06.2020 05:00:00 - - - - - - -
29.06.2020 04:00:00 26,6 22,5 22 12 S 1007,9 6
29.06.2020 03:00:00 - - - - - - -
29.06.2020 02:00:00 - - - - - - -
29.06.2020 01:00:00 27,0 23,5 7 4 S 1009,1 6
29.06.2020 00:00:00 - - - - - - -
28.06.2020 23:00:00 - - - - - - -
28.06.2020 22:00:00 29,0 23,3 11 6 S 1007,8 6
28.06.2020 21:00:00 - - - - - - -
28.06.2020 20:00:00 - - - - - - -
28.06.2020 19:00:00 31,0 21,3 18 10 S 1006,5 10
28.06.2020 18:00:00 - - - - - - -
28.06.2020 17:00:00 - - - - - - -
28.06.2020 16:00:00 34,2 24,3 22 12 E 1007,7 10
28.06.2020 15:00:00 - - - - - - -
28.06.2020 14:00:00 - - - - - - -
28.06.2020 13:00:00 33,8 23,9 7 4 SE 1009,7 10
28.06.2020 12:00:00 - - - - - - -
28.06.2020 11:00:00 - - - - - - -
28.06.2020 10:00:00 28,8 23,7 0 0 N 1010,9 10
28.06.2020 09:00:00 - - - - - - -
28.06.2020 08:00:00 - - - - - - -
28.06.2020 07:00:00 - - - - - - -
28.06.2020 06:00:00 - - - - - - -
28.06.2020 05:00:00 - - - - - - -
28.06.2020 04:00:00 - - - - - - -
28.06.2020 03:00:00 - - - - - - -
28.06.2020 02:00:00 - - - - - - -
28.06.2020 01:00:00 - - - - - - -
28.06.2020 00:00:00 - - - - - - -
27.06.2020 23:00:00 - - - - - - -
27.06.2020 22:00:00 - - - - - - -
27.06.2020 21:00:00 - - - - - - -
27.06.2020 20:00:00 - - - - - - -
27.06.2020 19:00:00 32,4 22,3 22 12 SE 1008,9 10
27.06.2020 18:00:00 - - - - - - -
27.06.2020 17:00:00 - - - - - - -
27.06.2020 16:00:00 34,2 22,8 25 14 SE 1010,4 10
27.06.2020 15:00:00 - - - - - - -
27.06.2020 14:00:00 - - - - - - -
27.06.2020 13:00:00 33,0 23,0 29 16 SE 1012,8 10
27.06.2020 12:00:00 - - - - - - -
27.06.2020 11:00:00 - - - - - - -
27.06.2020 10:00:00 29,4 20,7 4 2 S 1013,9 10
27.06.2020 09:00:00 - - - - - - -
27.06.2020 08:00:00 - - - - - - -
27.06.2020 07:00:00 - - - - - - -
27.06.2020 06:00:00 - - - - - - -
27.06.2020 05:00:00 - - - - - - -
27.06.2020 04:00:00 - - - - - - -
27.06.2020 03:00:00 - - - - - - -
27.06.2020 02:00:00 - - - - - - -
27.06.2020 01:00:00 26,0 22,4 11 6 S 1015,4 6
27.06.2020 00:00:00 - - - - - - -
26.06.2020 23:00:00 - - - - - - -
26.06.2020 22:00:00 26,4 23,1 7 4 S 1014,5 6
26.06.2020 21:00:00 - - - - - - -
26.06.2020 20:00:00 - - - - - - -
26.06.2020 19:00:00 29,6 23,1 11 6 E 1013,2 10
26.06.2020 18:00:00 - - - - - - -
26.06.2020 17:00:00 - - - - - - -
26.06.2020 16:00:00 33,2 23,8 4 2 E 1012,9 10
26.06.2020 15:00:00 - - - - - - -
26.06.2020 14:00:00 - - - - - - -
26.06.2020 13:00:00 28,8 25,6 0 0 N 1015,6 6
26.06.2020 12:00:00 - - - - - - -
26.06.2020 11:00:00 - - - - - - -
26.06.2020 10:00:00 23,6 23,1 0 0 N 1016,5 10
26.06.2020 09:00:00 - - - - - - -
26.06.2020 08:00:00 - - - - - - -
26.06.2020 07:00:00 23,0 22,4 0 0 N 1015,3 6
26.06.2020 06:00:00 - - - - - - -
26.06.2020 05:00:00 - - - - - - -
26.06.2020 04:00:00 23,6 23,1 0 0 N 1014,7 6
26.06.2020 03:00:00 - - - - - - -
26.06.2020 02:00:00 - - - - - - -
26.06.2020 01:00:00 23,0 22,7 0 0 N 1014,8 6
26.06.2020 00:00:00 - - - - - - -

tt = temperature
td = dewpoint
ff = wind speed
dd = wind direction
ppp = reduced air pressure
vv = visibility

Next stations